Date String (YYYY-MM-DD hh:mm:ss) UTC,Instrument flags,Ambient pressure (hPa),Sample flow (lpm),Bypass flow (lpm),Sample temperature (°C),Ambient temperature (°C),ASC tube jacket temperature (°C),LED temperature (°C),Box temperature (°C),Sample RH (%),Span deviation,Mass concentration (μg/m³),Mass concentration (μg/m³),Mass concentration (μg/m³)
DateTimeUTC,F1_M11,P_M11,Q1_M11,Q2_M11,T1_M11,T2_M11,T3_M11,T4_M11,T5_M11,U1_M11,ZSPAN_M11,X0_M11,X2_M11,X1_M11
2021-10-23 05:00:00,,0821.4,4.99,0.00,29.6,28.5,00.0,38.7,31.2,07.8,0000.0,0009.93,0002.28,0001.38
2021-10-23 05:01:00,,0821.4,5.01,0.00,29.6,28.5,00.0,38.7,31.2,07.8,0000.0,0009.94,0002.27,0001.37
2021-10-23 05:02:00,,0821.4,5.00,0.00,29.5,28.5,00.0,38.7,31.2,07.8,0000.0,0009.95,0002.23,0001.37
2021-10-23 05:03:00,,0821.4,4.99,0.00,29.5,28.5,00.0,38.7,31.2,07.8,0000.0,0010.05,0002.25,0001.37
2021-10-23 05:04:00,,0821.4,5.01,0.00,29.5,28.5,00.0,38.7,31.2,07.8,0000.0,0009.07,0002.19,0001.37
2021-10-23 05:05:00,,0821.3,4.99,0.00,29.5,28.5,00.0,38.7,31.2,07.8,0000.0,0008.66,0002.31,0001.38
2021-10-23 05:06:00,,0821.3,5.00,0.00,29.5,28.5,00.0,38.7,31.2,07.8,0000.0,0008.67,0002.31,0001.39
2021-10-23 05:07:00,,0821.4,4.99,0.00,29.5,28.5,00.0,38.7,31.2,07.8,0000.0,0008.13,0002.30,0001.39
2021-10-23 05:08:00,,0821.4,5.02,0.00,29.5,28.5,00.0,38.7,31.2,07.8,0000.0,0007.99,0002.26,0001.39
2021-10-23 05:09:00,,0821.4,5.00,0.00,29.5,28.5,00.0,38.7,31.2,07.8,0000.0,0007.90,0002.21,0001.40
2021-10-23 05:10:00,,0821.4,4.99,0.00,29.5,28.4,00.0,38.7,31.2,07.8,0000.0,0007.26,0002.19,0001.40
2021-10-23 05:11:00,,0821.3,5.00,0.00,29.5,28.4,00.0,38.7,31.2,07.8,0000.0,0006.89,0002.22,0001.41
2021-10-23 05:12:00,,0821.4,5.00,0.00,29.5,28.5,00.0,38.7,31.2,07.8,0000.0,0006.95,0002.25,0001.41
2021-10-23 05:13:00,,0821.3,4.99,0.00,29.5,28.5,00.0,38.7,31.2,07.8,0000.0,0006.70,0002.24,0001.41
2021-10-23 05:14:00,,0821.3,5.00,0.00,29.5,28.4,00.0,38.7,31.1,07.8,0000.0,0007.17,0002.26,0001.41
2021-10-23 05:15:00,,0821.3,5.01,0.00,29.5,28.4,00.0,38.7,31.2,07.8,0000.0,0007.96,0002.30,0001.42
2021-10-23 05:16:00,,0821.3,5.00,0.00,29.5,28.4,00.0,38.7,31.2,07.8,0000.0,0007.81,0002.25,0001.40
2021-10-23 05:17:00,,0821.3,4.99,0.00,29.5,28.4,00.0,38.7,31.2,07.8,0000.0,0007.82,0002.27,0001.40
2021-10-23 05:18:00,,0821.4,5.02,0.00,29.5,28.4,00.0,38.7,31.1,07.8,0000.0,0007.86,0002.26,0001.39
2021-10-23 05:19:00,,0821.3,4.99,0.00,29.5,28.4,00.0,38.7,31.2,07.8,0000.0,0007.84,0002.29,0001.39
2021-10-23 05:20:00,,0821.2,5.01,0.00,29.5,28.4,00.0,38.7,31.2,07.8,0000.0,0008.06,0002.28,0001.40
2021-10-23 05:21:00,,0821.2,4.99,0.00,29.5,28.4,00.0,38.7,31.1,07.8,0000.0,0008.39,0002.33,0001.40
2021-10-23 05:22:00,,0821.2,5.00,0.00,29.5,28.4,00.0,38.7,31.1,07.8,0000.0,0008.33,0002.31,0001.39
2021-10-23 05:23:00,,0821.2,5.01,0.00,29.5,28.4,00.0,38.7,31.1,07.8,0000.0,0008.34,0002.34,0001.39
2021-10-23 05:24:00,,0821.2,5.00,0.00,29.5,28.4,00.0,38.7,31.1,07.8,0000.0,0008.29,0002.33,0001.39
2021-10-23 05:25:00,,0821.2,5.01,0.00,29.5,28.4,00.0,38.6,31.1,07.8,0000.0,0007.45,0002.24,0001.38
2021-10-23 05:26:00,,0821.2,4.99,0.00,29.5,28.4,00.0,38.6,31.1,07.8,0000.0,0006.06,0002.18,0001.38
2021-10-23 05:27:00,,0821.1,5.01,0.00,29.5,28.4,00.0,38.6,31.1,07.8,0000.0,0005.61,0002.12,0001.38
2021-10-23 05:28:00,,0821.1,4.99,0.00,29.5,28.4,00.0,38.6,31.1,07.8,0000.0,0005.54,0002.11,0001.39
2021-10-23 05:29:00,,0821.1,5.01,0.00,29.5,28.4,00.0,38.6,31.1,07.8,0000.0,0005.40,0002.08,0001.39
2021-10-23 05:30:00,,0821.1,5.00,0.00,29.5,28.4,00.0,38.6,31.1,07.8,0000.0,0005.17,0002.03,0001.38
2021-10-23 05:31:00,,0821.1,5.00,0.00,29.5,28.4,00.0,38.6,31.1,07.8,0000.0,0004.39,0001.99,0001.38
2021-10-23 05:32:00,,0821.1,5.01,0.00,29.5,28.4,00.0,38.6,31.1,07.8,0000.0,0003.91,0001.95,0001.38
2021-10-23 05:33:00,,0821.0,4.99,0.00,29.4,28.4,00.0,38.6,31.1,07.8,0000.0,0003.47,0001.86,0001.37
2021-10-23 05:34:00,,0821.0,5.00,0.00,29.4,28.4,00.0,38.6,31.1,07.8,0000.0,0003.43,0001.80,0001.36
2021-10-23 05:35:00,,0821.1,5.00,0.00,29.4,28.3,00.0,38.6,31.0,07.9,0000.0,0003.95,0001.79,0001.35
2021-10-23 05:36:00,,0821.0,5.01,0.00,29.4,28.3,00.0,38.6,31.1,07.9,0000.0,0004.03,0001.83,0001.35
2021-10-23 05:37:00,,0821.0,4.99,0.00,29.4,28.3,00.0,38.6,31.1,07.9,0000.0,0004.03,0001.85,0001.35
2021-10-23 05:38:00,,0821.0,5.00,0.00,29.4,28.3,00.0,38.6,31.1,07.8,0000.0,0004.09,0001.86,0001.34
2021-10-23 05:39:00,,0821.0,4.99,0.00,29.4,28.3,00.0,38.6,31.0,07.8,0000.0,0004.07,0001.83,0001.32
2021-10-23 05:40:00,,0821.0,5.01,0.00,29.4,28.3,00.0,38.6,31.0,07.9,0000.0,0004.12,0001.82,0001.31
2021-10-23 05:41:00,,0820.9,5.01,0.00,29.4,28.3,00.0,38.6,31.0,07.9,0000.0,0004.70,0001.86,0001.31
2021-10-23 05:42:00,,0820.9,5.00,0.00,29.4,28.3,00.0,38.6,31.0,07.9,0000.0,0004.63,0001.89,0001.30
2021-10-23 05:43:00,,0820.9,5.01,0.00,29.4,28.3,00.0,38.6,31.0,07.9,0000.0,0004.31,0001.86,0001.30
2021-10-23 05:44:00,,0820.9,4.99,0.00,29.4,28.3,00.0,38.5,31.0,07.8,0000.0,0004.79,0001.91,0001.30
2021-10-23 05:45:00,,0820.9,5.01,0.00,29.4,28.3,00.0,38.5,31.0,07.8,0000.0,0005.83,0001.95,0001.29
2021-10-23 05:46:00,,0820.9,4.99,0.00,29.4,28.2,00.0,38.6,31.0,07.8,0000.0,0005.42,0001.99,0001.29
2021-10-23 05:47:00,,0820.8,5.00,0.00,29.4,28.2,00.0,38.5,31.0,07.8,0000.0,0005.57,0002.02,0001.29
2021-10-23 05:48:00,,0820.8,5.01,0.00,29.4,28.3,00.0,38.5,31.1,07.8,0000.0,0005.45,0001.98,0001.27
2021-10-23 05:49:00,,0820.8,5.00,0.00,29.4,28.3,00.0,38.5,31.0,07.8,0000.0,0005.40,0001.95,0001.26
2021-10-23 05:50:00,,0820.8,5.00,0.00,29.4,28.3,00.0,38.5,31.0,07.8,0000.0,0005.33,0001.95,0001.27
2021-10-23 05:51:00,,0820.8,5.00,0.00,29.4,28.3,00.0,38.5,31.0,07.8,0000.0,0005.25,0001.97,0001.27
2021-10-23 05:52:00,,0820.8,4.99,0.00,29.4,28.3,00.0,38.5,31.0,07.8,0000.0,0004.80,0001.94,0001.27
2021-10-23 05:53:00,,0820.8,5.01,0.00,29.3,28.3,00.0,38.5,31.0,07.8,0000.0,0004.71,0001.88,0001.25
2021-10-23 05:54:00,,0820.8,4.99,0.00,29.3,28.3,00.0,38.5,31.0,07.9,0000.0,0004.72,0001.85,0001.25
2021-10-23 05:55:00,,0820.9,5.00,0.00,29.3,28.3,00.0,38.5,31.0,07.9,0000.0,0004.86,0001.83,0001.24
2021-10-23 05:56:00,,0820.8,5.00,0.00,29.3,28.3,00.0,38.5,31.0,07.8,0000.0,0004.62,0001.77,0001.24
2021-10-23 05:57:00,,0820.8,5.00,0.00,29.3,28.3,00.0,38.5,31.0,07.8,0000.0,0004.34,0001.69,0001.22
2021-10-23 05:58:00,,0820.8,4.99,0.00,29.3,28.2,00.0,38.5,31.0,07.8,0000.0,0004.81,0001.70,0001.22
2021-10-23 05:59:00,,0820.9,5.00,0.00,29.3,28.3,00.0,38.5,31.0,07.8,0000.0,0005.18,0001.77,0001.23
